DW2913 Weather Reports


Display with metric or nautical units.
time (UTC)temp
F
wind
direction
speed
MPH
gust
MPH
rain 1hr
in
rain 24hr
in
rain mn
in
humidity
%
barometer
mb
20181021140712 54 87 4.0 15.0 0.00 0.01 0.01 55 1026.8
20181021140213 55 51 5.0 12.0 0.00 0.01 0.01 56 1026.7
20181021135709 55 51 6.0 12.0 0.00 0.01 0.01 56 1026.8
20181021135211 55 74 4.0 11.0 0.00 0.01 0.01 58 1026.8
20181021134711 55 84 4.0 11.0 0.00 0.01 0.01 59 1026.7
20181021134213 55 53 3.0 12.0 0.00 0.01 0.01 59 1026.7
20181021133710 55 67 3.0 12.0 0.00 0.01 0.01 60 1026.7
20181021133211 55 40 4.0 11.0 0.00 0.01 0.01 60 1026.7
20181021132714 55 40 4.0 11.0 0.00 0.01 0.01 60 1026.7
20181021132212 55 80 2.0 11.0 0.00 0.01 0.01 62 1026.6
20181021131709 55 117 3.0 11.0 0.00 0.01 0.01 62 1026.7
20181021131211 55 138 4.0 9.0 0.00 0.01 0.01 61 1026.7
20181021130712 55 108 2.0 9.0 0.00 0.01 0.01 61 1026.6
20181021130212 55 84 2.0 10.0 0.00 0.01 0.01 65 1026.7
20181021125708 54 142 3.0 10.0 0.00 0.01 0.01 64 1026.7
20181021125211 54 68 4.0 10.0 0.00 0.01 0.01 63 1026.8
20181021124710 54 107 3.0 10.0 0.00 0.01 0.01 64 1026.7
20181021124212 53 148 1.0 13.0 0.00 0.01 0.01 65 1026.7
20181021123710 53 65 3.0 13.0 0.00 0.01 0.01 66 1026.8
20181021123211 54 77 6.0 13.0 0.00 0.01 0.01 64 1026.9
20181021122710 54 76 6.0 13.0 0.00 0.01 0.01 62 1026.9
20181021122212 54 63 6.0 13.0 0.00 0.01 0.01 64 1026.8
20181021121710 54 55 5.0 13.0 0.00 0.01 0.01 66 1026.7
20181021121210 53 46 4.0 13.0 0.00 0.01 0.01 67 1026.7
20181021120709 53 62 5.0 13.0 0.00 0.01 0.01 67 1026.8
20181021120212 53 61 6.0 13.0 0.00 0.01 0.01 67 1026.9
20181021115709 53 72 6.0 13.0 0.00 0.01 0.01 68 1026.9
20181021115210 53 61 5.0 13.0 0.00 0.01 0.01 69 1027.0
20181021114710 52 69 4.0 13.0 0.00 0.01 0.01 69 1027.0
20181021114211 52 75 4.0 13.0 0.00 0.01 0.01 69 1027.0
20181021113710 53 86 5.0 13.0 0.00 0.01 0.01 69 1027.0
20181021113210 53 55 4.0 13.0 0.00 0.01 0.01 69 1027.1
20181021112709 53 91 4.0 13.0 0.00 0.01 0.01 71 1027.1
20181021112211 53 60 5.0 13.0 0.00 0.01 0.01 69 1027.2
20181021111709 53 76 5.0 13.0 0.00 0.01 0.01 69 1027.2
20181021111211 53 86 6.0 13.0 0.00 0.01 0.01 70 1027.2
20181021110711 53 59 5.0 13.0 0.00 0.01 0.01 68 1027.3
20181021110212 54 82 4.0 13.0 0.00 0.01 0.01 69 1027.4
20181021105708 54 119 3.0 13.0 0.00 0.01 0.01 70 1027.4
20181021105213 53 53 5.0 13.0 0.00 0.01 0.01 72 1027.4
20181021104713 53 80 6.0 13.0 0.00 0.01 0.01 70 1027.6
20181021104214 53 83 6.0 14.0 0.00 0.01 0.01 70 1027.6
20181021103713 53 78 7.0 14.0 0.00 0.01 0.01 69 1027.8
20181021103213 53 82 6.0 12.0 0.00 0.01 0.01 69 1027.9
20181021102713 53 46 4.0 12.0 0.00 0.01 0.01 69 1028.0
20181021102214 52 57 5.0 12.0 0.00 0.01 0.01 72 1028.0
20181021101712 52 64 4.0 12.0 0.00 0.01 0.01 70 1027.9
20181021101212 52 61 2.0 11.0 0.00 0.01 0.01 71 1028.0
20181021100712 51 81 3.0 11.0 0.00 0.01 0.01 72 1028.1
20181021100212 51 42 4.0 13.0 0.00 0.01 0.01 72 1028.0
20181021095710 51 82 3.0 13.0 0.00 0.01 0.01 72 1028.1
20181021095211 51 78 4.0 12.0 0.00 0.01 0.01 73 1028.1
20181021094711 51 57 4.0 12.0 0.00 0.01 0.01 72 1028.1
20181021094212 51 61 4.0 12.0 0.00 0.01 0.01 72 1028.1
20181021093710 50 101 5.0 12.0 0.00 0.01 0.01 72 1028.1
20181021093212 51 81 5.0 11.0 0.00 0.01 0.01 73 1028.0
20181021092711 51 78 4.0 11.0 0.00 0.01 0.01 75 1028.1
20181021092212 50 60 4.0 12.0 0.00 0.01 0.01 78 1028.1
20181021091710 50 42 6.0 12.0 0.00 0.01 0.01 79 1028.1
20181021091212 49 78 5.0 10.0 0.00 0.01 0.01 79 1028.1
20181021090711 49 69 4.0 10.0 0.00 0.01 0.01 80 1028.1
20181021090212 49 76 2.0 7.0 0.00 0.01 0.01 84 1028.1
20181021085711 49 82 2.0 7.0 0.00 0.01 0.01 85 1028.2
20181021085211 49 49 3.0 7.0 0.00 0.01 0.01 84 1028.4
20181021084710 48 51 3.0 7.0 0.00 0.01 0.01 83 1028.5
20181021084212 47 59 3.0 6.0 0.00 0.01 0.01 81 1028.6
20181021083709 46 45 3.0 6.0 0.00 0.01 0.01 79 1028.6
20181021083211 45 56 2.0 5.0 0.00 0.01 0.01 78 1028.6
20181021082710 45 78 1.0 5.0 0.00 0.01 0.01 77 1028.1
20181021082212 44 78 2.0 6.0 0.00 0.01 0.01 77 1028.2
20181021081710 44 66 2.0 6.0 0.00 0.01 0.01 77 1028.0
20181021081211 44 58 1.0 4.0 0.00 0.01 0.01 76 1028.0
20181021080711 44 58 1.0 4.0 0.00 0.01 0.01 76 1028.2
20181021080212 44 56 1.0 4.0 0.00 0.01 0.01 76 1027.9
20181021075710 44 56 1.0 4.0 0.00 0.01 0.01 76 1028.0
20181021075211 43 68 0.0 2.0 0.00 0.01 0.01 76 1028.1
20181021074711 43 150 0.0 2.0 0.00 0.01 0.01 76 1028.2
20181021074212 43 153 0.0 4.0 0.00 0.01 0.01 76 1028.0
20181021073709 43 153 0.0 4.0 0.00 0.01 0.01 76 1027.9
20181021073211 43 153 0.0 0.0 0.00 0.01 0.01 76 1028.0
20181021072709 42 153 0.0 0.0 0.00 0.01 0.01 76 1028.1
20181021072212 42 165 0.0 0.0 0.00 0.01 0.01 77 1028.0
20181021071710 42 165 0.0 0.0 0.00 0.01 0.01 76 1027.9
20181021071212 42 165 0.0 0.0 0.00 0.01 0.01 76 1028.0
20181021070710 42 165 0.0 0.0 0.00 0.01 0.01 76 1028.0
20181021070213 42 165 0.0 0.0 0.00 0.01 0.01 77 1028.1
20181021065710 42 165 0.0 0.0 0.00 0.01 0.01 77 1028.0
20181021065210 41 165 0.0 0.0 0.00 0.01 0.01 76 1028.0
20181021064711 41 165 0.0 0.0 0.00 0.01 0.01 77 1027.9
20181021064214 41 165 0.0 0.0 0.00 0.01 0.01 77 1028.0
20181021063711 41 165 0.0 0.0 0.00 0.01 0.01 77 1027.9
20181021063212 40 165 0.0 0.0 0.00 0.01 0.01 77 1027.8
20181021062708 40 165 0.0 0.0 0.00 0.01 0.01 77 1027.7
20181021062213 40 165 0.0 0.0 0.00 0.01 0.01 77 1027.8
20181021061709 40 165 0.0 2.0 0.00 0.01 0.01 77 1027.8
20181021061211 40 165 0.0 2.0 0.00 0.01 0.01 77 1027.8
20181021060711 40 165 0.0 2.0 0.00 0.01 0.01 77 1027.7
20181021060213 40 165 0.0 0.0 0.00 0.01 0.01 77 1027.9
20181021055709 40 180 0.0 0.0 0.00 0.01 0.01 77 1027.7
20181021055210 40 180 0.0 0.0 0.00 0.01 0.01 77 1027.6
20181021054712 40 180 0.0 0.0 0.00 0.01 0.01 77 1027.6
20181021054212 40 180 0.0 0.0 0.00 0.01 0.01 77 1027.6
20181021053710 40 180 0.0 0.0 0.00 0.01 0.01 77 1027.5
20181021053210 40 180 0.0 0.0 0.00 0.01 0.01 77 1027.6
20181021052710 40 180 0.0 0.0 0.00 0.01 0.01 77 1027.4
20181021052212 40 180 0.0 0.0 0.00 0.01 0.01 77 1027.6
20181021051710 40 180 0.0 0.0 0.00 0.01 0.01 77 1027.5
20181021051212 40 180 0.0 0.0 0.00 0.01 0.01 77 1027.7
20181021050711 40 180 0.0 0.0 0.00 0.01 0.01 77 1027.8
20181021050214 40 180 0.0 0.0 0.00 0.01 0.01 77 1027.7
20181021045711 40 180 0.0 0.0 0.00 0.01 0.01 77 1027.8
20181021045212 40 180 0.0 0.0 0.00 0.01 0.01 77 1027.7
20181021044715 40 180 0.0 0.0 0.00 0.01 0.01 77 1027.7
20181021044213 40 180 0.0 0.0 0.00 0.01 0.01 77 1027.8
20181021043714 40 180 0.0 0.0 0.00 0.01 0.01 77 1027.7
20181021043212 40 180 0.0 0.0 0.00 0.01 0.01 77 1027.5
20181021042714 40 180 0.0 0.0 0.00 0.01 0.01 77 1027.3
20181021042214 40 180 0.0 0.0 0.00 0.01 0.01 77 1027.7
20181021041712 40 180 0.0 0.0 0.00 0.01 0.01 77 1027.9
20181021041211 40 180 0.0 0.0 0.00 0.01 0.01 77 1027.9
20181021040713 40 180 0.0 0.0 0.00 0.01 0.01 77 1027.8
20181021040213 40 180 0.0 0.0 0.00 0.01 0.01 77 1027.8
20181021035710 40 180 0.0 0.0 0.00 0.01 0.01 77 1027.9
20181021035212 40 180 0.0 0.0 0.00 0.01 0.01 77 1028.0
20181021034710 40 180 0.0 0.0 0.00 0.01 0.01 77 1027.8
20181021034212 40 180 0.0 0.0 0.00 0.01 0.01 77 1027.8
20181021033709 39 180 0.0 0.0 0.00 0.01 0.01 78 1027.6
20181021033210 39 180 0.0 0.0 0.00 0.01 0.01 78 1027.5
20181021032710 39 180 0.0 0.0 0.00 0.01 0.01 78 1027.5
20181021032212 39 180 0.0 1.0 0.00 0.01 0.01 78 1027.7
20181021031710 39 180 0.0 1.0 0.00 0.01 0.01 78 1027.6
20181021031212 39 180 0.0 0.0 0.00 0.01 0.01 78 1027.6
20181021030710 39 180 0.0 0.0 0.00 0.01 0.01 78 1027.6
20181021030212 39 180 0.0 0.0 0.00 0.01 0.01 78 1027.6
20181021025710 39 180 0.0 0.0 0.00 0.01 0.01 78 1027.7
20181021025211 39 180 0.0 0.0 0.00 0.01 0.01 78 1027.6
20181021024709 39 180 0.0 0.0 0.00 0.01 0.01 78 1027.7
20181021024210 39 180 0.0 0.0 0.00 0.01 0.01 78 1027.7
20181021023707 40 180 0.0 0.0 0.00 0.01 0.01 78 1027.7
20181021023210 40 180 0.0 0.0 0.00 0.01 0.01 78 1027.9
20181021022707 40 180 0.0 0.0 0.00 0.01 0.01 78 1027.7
20181021022210 40 180 0.0 0.0 0.00 0.01 0.01 78 1027.8
20181021021707 40 180 0.0 0.0 0.00 0.01 0.01 78 1028.0
20181021021209 40 180 0.0 0.0 0.00 0.01 0.01 78 1027.8
20181021020709 40 180 0.0 0.0 0.01 0.02 0.01 78 1027.8
20181021020210 40 180 0.0 0.0 0.01 0.02 0.01 78 1027.8
20181021015708 40 180 0.0 0.0 0.01 0.02 0.01 79 1027.7
20181021015209 40 180 0.0 0.0 0.01 0.02 0.01 78 1027.7
20181021014708 40 180 0.0 0.0 0.01 0.02 0.01 78 1027.7
20181021014211 40 180 0.0 0.0 0.01 0.02 0.01 78 1027.8
20181021013707 40 180 0.0 0.0 0.01 0.02 0.01 78 1027.8
20181021013210 40 180 0.0 0.0 0.01 0.02 0.01 78 1027.8
20181021012707 40 180 0.0 0.0 0.01 0.02 0.01 78 1027.8
20181021012211 40 180 0.0 0.0 0.01 0.02 0.01 79 1027.8
20181021011708 40 180 0.0 1.0 0.01 0.02 0.01 79 1027.8
20181021011209 40 180 0.0 1.0 0.00 0.01 0.00 79 1027.9
20181021010708 40 180 0.0 3.0 0.00 0.01 0.00 79 1028.0
20181021010211 40 180 0.0 4.0 0.00 0.01 0.00 79 1028.0
20181021005707 40 180 1.0 4.0 0.00 0.01 0.00 79 1027.9
20181021005209 41 181 2.0 4.0 0.00 0.01 0.00 78 1028.0
20181021004707 41 182 1.0 3.0 0.00 0.01 0.00 78 1027.9
20181021004211 41 182 0.0 2.0 0.00 0.01 0.00 78 1027.9
20181021003707 41 182 0.0 2.0 0.00 0.01 0.00 78 1028.0
20181021003209 41 182 0.0 3.0 0.00 0.01 0.00 78 1028.0
20181021002708 41 182 0.0 3.0 0.00 0.01 0.00 78 1028.0
20181021002210 40 182 0.0 3.0 0.00 0.01 0.00 79 1028.1
20181021001707 40 182 0.0 1.0 0.00 0.01 0.00 79 1028.0
20181021001209 40 181 0.0 1.0 0.00 0.01 0.00 79 1027.9
20181021000708 40 181 0.0 0.0 0.00 0.01 0.00 79 1027.9
20181021000211 40 181 0.0 0.0 0.00 0.01 0.00 80 1027.9
20181020235707 40 181 0.0 0.0 0.00 0.01 0.00 81 1028.0
20181020235209 40 181 0.0 0.0 0.00 0.01 0.00 81 1028.1
20181020234707 40 181 0.0 0.0 0.00 0.01 0.00 81 1028.1
20181020234211 41 181 0.0 0.0 0.00 0.01 0.00 80 1028.0
20181020233708 41 181 0.0 0.0 0.00 0.01 0.00 80 1028.1
20181020233210 41 181 0.0 0.0 0.00 0.01 0.00 80 1028.2
20181020232708 41 181 0.0 0.0 0.00 0.01 0.00 80 1028.2
20181020232210 41 181 0.0 0.0 0.00 0.01 0.00 80 1028.4
20181020231707 42 181 0.0 2.0 0.00 0.01 0.00 80 1028.6
20181020231210 42 181 0.0 3.0 0.00 0.01 0.00 80 1028.7
20181020230708 41 181 0.0 3.0 0.00 0.01 0.00 81 1028.7
20181020230211 41 181 0.0 3.0 0.00 0.01 0.00 81 1028.7
20181020225708 42 338 0.0 0.0 0.00 0.01 0.00 81 1028.8
20181020225209 42 339 0.0 0.0 0.00 0.01 0.00 81 1028.8
20181020224707 42 340 0.0 0.0 0.00 0.01 0.00 81 1028.7
20181020224211 42 340 0.0 0.0 0.00 0.01 0.00 80 1028.7
20181020223708 42 340 0.0 0.0 0.00 0.01 0.00 80 1028.8
20181020223211 42 340 0.0 6.0 0.00 0.01 0.00 80 1028.8
20181020222709 42 340 0.0 6.0 0.00 0.01 0.00 80 1028.9
20181020222212 42 340 0.0 6.0 0.00 0.01 0.00 80 1029.0
20181020221710 42 340 1.0 6.0 0.00 0.01 0.00 81 1029.0
20181020221210 42 340 0.0 6.0 0.00 0.01 0.00 81 1028.8
20181020220708 42 144 0.0 0.0 0.00 0.01 0.00 81 1028.9
20181020220211 42 144 0.0 0.0 0.00 0.01 0.01 81 1028.7
20181020215707 42 144 0.0 0.0 0.00 0.01 0.01 81 1028.8
20181020215211 42 144 0.0 0.0 0.00 0.01 0.01 81 1028.9
20181020214707 42 144 0.0 0.0 0.00 0.01 0.01 81 1029.0
20181020214211 42 144 0.0 1.0 0.00 0.01 0.01 81 1029.1
20181020213708 42 144 0.0 1.0 0.00 0.01 0.01 81 1029.0
20181020213209 42 144 0.0 0.0 0.00 0.01 0.01 81 1028.9
20181020212708 43 144 0.0 0.0 0.00 0.01 0.01 82 1028.9
20181020212211 43 144 0.0 0.0 0.00 0.01 0.01 82 1028.9
20181020211708 43 144 0.0 5.0 0.00 0.01 0.01 82 1028.9
20181020211209 43 144 1.0 6.0 0.00 0.01 0.01 82 1028.9
20181020210707 43 144 3.0 6.0 0.00 0.01 0.01 82 1029.1
20181020210210 43 143 2.0 6.0 0.00 0.01 0.01 82 1029.0
20181020205707 44 141 2.0 6.0 0.00 0.01 0.01 82 1029.0
20181020205209 44 141 2.0 6.0 0.00 0.01 0.01 82 1029.1
20181020204708 44 141 1.0 0.0 0.00 0.01 0.01 82 1029.1
20181020204211 44 130 0.0 0.0 0.00 0.01 0.01 81 1029.2
20181020203707 44 130 0.0 0.0 0.00 0.01 0.01 81 1029.2
20181020203209 44 130 0.0 0.0 0.00 0.01 0.01 81 1029.2
20181020202708 44 130 0.0 0.0 0.00 0.01 0.01 81 1029.2
20181020202210 44 130 0.0 0.0 0.00 0.01 0.01 81 1029.1
20181020201707 44 130 0.0 0.0 0.00 0.01 0.01 82 1029.2
20181020201210 44 130 0.0 0.0 0.00 0.01 0.01 82 1029.2
20181020200708 44 129 0.0 0.0 0.00 0.01 0.01 82 1029.3
20181020200211 44 129 0.0 0.0 0.00 0.01 0.01 83 1029.2
20181020195707 44 129 0.0 0.0 0.00 0.01 0.01 82 1029.3
20181020195208 44 129 0.0 0.0 0.00 0.01 0.01 83 1029.2
20181020194707 44 129 0.0 0.0 0.00 0.01 0.01 83 1029.3
20181020194211 44 129 0.0 0.0 0.00 0.01 0.01 82 1029.3
20181020193707 44 129 0.0 0.0 0.00 0.01 0.01 82 1029.1
20181020193210 44 129 0.0 4.0 0.00 0.01 0.01 83 1029.1
20181020192708 44 128 0.0 4.0 0.00 0.01 0.01 83 1029.1
20181020192211 44 128 1.0 4.0 0.00 0.01 0.01 84 1029.0
20181020191707 45 128 1.0 4.0 0.00 0.01 0.01 84 1029.0
20181020191208 45 128 0.0 0.0 0.00 0.01 0.01 83 1029.1
20181020190709 45 128 0.0 0.0 0.00 0.01 0.01 83 1029.2
20181020190211 46 128 0.0 0.0 0.00 0.01 0.01 83 1029.0
20181020185707 46 128 0.0 0.0 0.00 0.01 0.01 83 1029.0
20181020185209 46 128 0.0 0.0 0.00 0.01 0.01 84 1029.0
20181020184706 46 128 0.0 0.0 0.00 0.01 0.01 84 1028.8
20181020184211 46 128 0.0 0.0 0.00 0.01 0.01 83 1028.7
20181020183709 46 128 0.0 0.0 0.00 0.01 0.01 83 1028.8
20181020183210 46 128 0.0 1.0 0.00 0.01 0.01 83 1028.7
20181020182707 46 128 0.0 4.0 0.00 0.01 0.01 84 1028.8
20181020182210 47 128 1.0 4.0 0.00 0.01 0.01 84 1028.7
20181020181707 47 128 1.0 4.0 0.00 0.01 0.01 83 1028.6
20181020181210 46 128 1.0 2.0 0.00 0.01 0.01 84 1028.5
20181020180708 46 128 0.0 2.0 0.00 0.01 0.01 84 1028.6
20181020180211 47 128 0.0 2.0 0.00 0.01 0.01 84 1028.5
20181020175707 47 128 0.0 2.0 0.00 0.01 0.01 84 1028.6
20181020175210 47 128 0.0 1.0 0.00 0.01 0.01 84 1028.5
20181020174709 47 128 0.0 2.0 0.00 0.01 0.01 84 1028.4
20181020174211 47 128 0.0 2.0 0.00 0.01 0.01 84 1028.3
20181020173709 47 128 0.0 2.0 0.00 0.01 0.01 84 1028.1
20181020173210 48 127 0.0 1.0 0.00 0.01 0.01 84 1028.1
20181020172708 48 127 0.0 1.0 0.00 0.01 0.01 84 1028.1
20181020172210 49 123 0.0 1.0 0.00 0.01 0.01 83 1028.1
20181020171707 49 121 0.0 0.0 0.00 0.01 0.01 82 1028.1
20181020171212 50 32 0.0 0.0 0.00 0.01 0.01 83 1028.1
20181020170712 51 32 0.0 0.0 0.00 0.01 0.01 82 1028.1
20181020170212 51 32 0.0 0.0 0.00 0.01 0.01 82 1028.3
20181020165709 51 32 0.0 0.0 0.00 0.01 0.01 81 1028.2
20181020165212 52 32 0.0 0.0 0.00 0.01 0.01 80 1028.3
20181020164714 52 32 0.0 0.0 0.00 0.01 0.01 79 1028.3
20181020164214 53 32 0.0 0.0 0.00 0.01 0.01 78 1028.1
20181020163713 53 32 0.0 0.0 0.00 0.01 0.01 77 1028.1
20181020163214 54 32 0.0 0.0 0.00 0.01 0.01 75 1028.0
20181020162713 55 32 0.0 0.0 0.00 0.01 0.01 75 1028.0
20181020162214 55 32 0.0 0.0 0.00 0.01 0.01 74 1027.9
20181020161712 56 32 0.0 0.0 0.00 0.01 0.01 73 1027.9
20181020161211 56 32 0.0 0.0 0.00 0.01 0.01 73 1027.8
20181020160713 56 32 0.0 0.0 0.00 0.02 0.01 71 1027.8
20181020160212 57 32 0.0 0.0 0.00 0.02 0.01 71 1027.8
20181020155711 57 32 0.0 0.0 0.00 0.02 0.01 71 1027.7
20181020155211 57 32 0.0 5.0 0.00 0.02 0.01 71 1027.8
20181020154711 57 32 0.0 5.0 0.00 0.02 0.01 71 1027.8
20181020154213 57 32 0.0 6.0 0.00 0.02 0.01 70 1027.9
20181020153710 58 32 0.0 6.0 0.00 0.02 0.01 70 1028.0
20181020153211 58 32 1.0 7.0 0.00 0.02 0.01 70 1028.1
20181020152708 58 32 1.0 7.0 0.00 0.02 0.01 69 1028.1
20181020152212 58 34 1.0 7.0 0.00 0.02 0.01 70 1028.0
20181020151711 58 34 2.0 7.0 0.00 0.02 0.01 70 1028.1
20181020151211 58 35 3.0 6.0 0.00 0.02 0.01 69 1027.9
20181020150712 58 16 2.0 6.0 0.00 0.02 0.01 69 1027.9
20181020150212 58 25 2.0 5.0 0.00 0.02 0.01 69 1027.8
20181020145709 58 22 1.0 5.0 0.00 0.02 0.01 69 1027.8
20181020145211 58 22 1.0 7.0 0.00 0.02 0.01 69 1027.8
20181020144711 58 17 1.0 7.0 0.00 0.02 0.01 69 1027.8
20181020144212 58 16 2.0 7.0 0.00 0.02 0.01 69 1027.8
20181020143712 58 17 3.0 7.0 0.00 0.02 0.01 69 1027.8
20181020143211 59 15 3.0 6.0 0.00 0.02 0.01 68 1027.7
20181020142711 59 0 1.0 6.0 0.00 0.02 0.01 68 1027.8
20181020142211 59 25 2.0 6.0 0.00 0.02 0.01 68 1027.9
20181020141710 59 25 3.0 6.0 0.00 0.02 0.01 68 1027.8
20181020141211 59 27 3.0 7.0 0.00 0.02 0.01 68 1027.9